Flag for Poland Weather past 2 weeks in Tychy, Poland

Now
46 °F

Passing clouds.


Feels Like: 40 °F
Forecast: 37 / 47 °F
Wind: 14 mph from Southwest

Location: Katowice Airport

Current Time: Mar 1, 2015 at 4:48:05 PM

Latest Report: Mar 1, 2015 at 4:30 PM


Visibility: N/A

Pressure: 29.74 "Hg

Humidity: 53%

Dew point: 30 °F

Location of TychyLocation

Historic Weather in Tychy — Graph

°F

Tychy temperature yesterday

Maximum temperature yesterday: 43 °F (at 11:30 AM)
Minimum temperature yesterday: 36 °F (at 8:00 PM)
Average temperature yesterday: 39 °F

Past Weeks' High & Low Weather Summary

 TemperatureHumidityPressure
High52 °F (Feb 15, 2:30 PM)100% (Feb 15, 12:30 AM)30.69 "Hg (Feb 15, 12:30 AM)
Low19 °F (Feb 15, 7:00 AM)29% (Feb 21, 1:00 PM)29.53 "Hg (Feb 23, 4:00 PM)
Average36 °F80%30.05 "Hg
* Reported Feb 14 3:00 PM — Mar 1 3:30 PM, Tychy, Weather by CustomWeather, © 2015

Note: Actual official high and low records may vary slightly from our data, if they occured in-between our weather recording intervals... More about our weather records

Advertising

Tychy weather history for previous 24 hours

 ConditionsComfort  
Time TempWeatherWind HumidityBarometerVisibility
3:30 PM
Sun, Mar 1
48 °FScattered clouds.10 mph50%29.74 "HgN/A
3:00 PM48 °FScattered clouds.13 mph50%29.74 "HgN/A
2:30 PM48 °FScattered clouds.12 mph54%29.77 "HgN/A
2:00 PM48 °FPartly sunny.9 mph54%29.77 "HgN/A
1:30 PM48 °FPartly sunny.10 mph54%29.77 "HgN/A
1:00 PM46 °FPartly sunny.10 mph57%29.80 "HgN/A
12:30 PM46 °FScattered clouds.12 mph57%29.83 "HgN/A
12:00 PM46 °FScattered clouds.13 mph53%29.83 "HgN/A
11:30 AM46 °FPassing clouds.13 mph50%29.86 "HgN/A
11:00 AM45 °FPassing clouds.9 mph66%29.86 "HgN/A
10:30 AM43 °FClear.8 mph76%29.89 "Hg4 mi
10:00 AM43 °FFog.7 mph76%29.89 "Hg3 mi
9:30 AM41 °FFog.7 mph81%29.89 "Hg2 mi
9:00 AM39 °FFog.8 mph87%29.92 "Hg2 mi
8:30 AM37 °FFog.7 mph93%29.92 "Hg1 mi
8:00 AM36 °FFog.7 mph93%29.92 "Hg1 mi
7:30 AM36 °FFog.5 mph93%29.95 "Hg1 mi
7:00 AM34 °FFog.3 mph100%29.95 "Hg1 mi
6:30 AM34 °FFog.3 mph100%29.95 "Hg1 mi
6:00 AM36 °FFog.5 mph93%29.95 "Hg1 mi
5:30 AM36 °FSprinkles. Fog.7 mph93%29.98 "Hg2 mi
5:00 AM36 °FSprinkles. Fog.7 mph93%29.98 "Hg2 mi
4:30 AM36 °FSprinkles. Fog.6 mph93%29.98 "Hg2 mi
4:00 AM36 °FFog.6 mph93%29.98 "Hg2 mi
3:30 AM36 °FFog.5 mph93%29.98 "Hg2 mi
3:00 AM36 °FFog.3 mph93%30.01 "Hg2 mi
2:30 AM36 °FFog.1 mph93%30.01 "Hg2 mi
2:00 AM36 °FFog.1 mph93%30.04 "Hg2 mi
1:30 AM36 °FFog.3 mph93%30.04 "Hg2 mi
1:00 AM36 °FFog.5 mph93%30.04 "Hg2 mi
12:30 AM36 °FFog.5 mph93%30.04 "Hg2 mi
12:00 AM36 °FFog.5 mph93%30.07 "Hg2 mi
11:30 PM
Sat, Feb 28
36 °FFog.3 mph93%30.07 "Hg2 mi
11:00 PM36 °FFog.2 mph93%30.07 "Hg2 mi
10:30 PM36 °FFog.1 mph93%30.07 "Hg2 mi
10:00 PM36 °FFog.1 mph93%30.09 "Hg2 mi
9:30 PM36 °FFog.1 mph93%30.09 "Hg2 mi
9:00 PM36 °FFog.1 mph93%30.09 "Hg2 mi
8:30 PM36 °FFog.No wind93%30.09 "Hg2 mi
8:00 PM36 °FFog.1 mph93%30.09 "Hg2 mi
7:30 PM37 °FFog.3 mph87%30.09 "Hg2 mi
7:00 PM37 °FFog.2 mph87%30.09 "Hg2 mi
6:30 PM37 °FFog.1 mph87%30.09 "Hg2 mi
6:00 PM37 °FFog.2 mph87%30.09 "Hg2 mi
5:30 PM37 °FFog.7 mph87%30.07 "Hg2 mi
5:00 PM37 °FFog.7 mph93%30.07 "Hg2 mi
4:30 PM39 °FFog.7 mph87%30.07 "Hg2 mi
4:00 PM39 °FFog.10 mph87%30.07 "Hg2 mi
Weather by CustomWeather, © 2015

See weather overviewHow to use our weather pages